• In Hungary
  • List of Countries
  • For 7 days
  • Water Temperature
  • Satellite Maps
  • Weather Map
  • News
  • Weather Widgets
  • user-avatar
    Login

    Hourly Weather Kati

    Today, 17 January, Wednesday

    Time Temperature Precipitation Wind Pressure Humidity
    00:00 +23°C° 0 mm 0 mps 724 mmHg 10%
    01:00 +23°C° 0 mm 0 mps 724 mmHg 10%
    02:00 +22°C° 0 mm 0 mps 724 mmHg 10%
    03:00 +24°C° 0 mm 1 mps 724 mmHg 11%
    04:00 +23°C° 0 mm 1 mps 724 mmHg 11%
    05:00 +21°C° 0 mm 2 mps 724 mmHg 13%
    06:00 +23°C° 0 mm 2 mps 724 mmHg 12%
    07:00 +24°C° 0 mm 2 mps 725 mmHg 11%
    08:00 +26°C° 0 mm 2 mps 725 mmHg 11%
    09:00 +29°C° 0 mm 2 mps 725 mmHg 9%
    10:00 +32°C° 0 mm 2 mps 725 mmHg 8%
    11:00 +35°C° 0 mm 3 mps 726 mmHg 8%
    12:00 +36°C° 0 mm 2 mps 725 mmHg 7%
    13:00 +37°C° 0 mm 2 mps 725 mmHg 7%
    14:00 +37°C° 0 mm 1 mps 724 mmHg 7%
    15:00 +36°C° 0 mm 1 mps 724 mmHg 8%
    16:00 +35°C° 0 mm 1 mps 724 mmHg 9%
    17:00 +33°C° 0 mm 1 mps 724 mmHg 10%
    18:00 +32°C° 0 mm 1 mps 724 mmHg 11%
    19:00 +30°C° 0 mm 1 mps 724 mmHg 12%
    20:00 +28°C° 0 mm 1 mps 725 mmHg 13%
    21:00 +27°C° 0 mm 2 mps 725 mmHg 14%
    22:00 +26°C° 0 mm 2 mps 725 mmHg 15%
    23:00 +25°C° 0 mm 3 mps 725 mmHg 16%

    Tomorrow, 18 January, Thursday

    Time Temperature Precipitation Wind Pressure Humidity
    00:00 +24°C° 0 mm 3 mps 725 mmHg 17%
    01:00 +22°C° 0 mm 3 mps 725 mmHg 19%
    02:00 +21°C° 0 mm 3 mps 725 mmHg 20%
    03:00 +21°C° 0 mm 3 mps 725 mmHg 21%
    04:00 +20°C° 0 mm 3 mps 725 mmHg 21%
    05:00 +19°C° 0 mm 3 mps 724 mmHg 22%
    06:00 +21°C° 0 mm 3 mps 725 mmHg 21%
    07:00 +22°C° 0 mm 4 mps 726 mmHg 19%
    08:00 +23°C° 0 mm 4 mps 726 mmHg 18%
    09:00 +27°C° 0 mm 4 mps 726 mmHg 16%
    10:00 +30°C° 0 mm 4 mps 726 mmHg 13%
    11:00 +34°C° 0 mm 4 mps 726 mmHg 10%
    12:00 +35°C° 0 mm 4 mps 726 mmHg 10%
    13:00 +36°C° 0 mm 4 mps 725 mmHg 9%
    14:00 +37°C° 0 mm 4 mps 724 mmHg 9%
    15:00 +36°C° 0 mm 3 mps 724 mmHg 9%
    16:00 +35°C° 0 mm 3 mps 724 mmHg 10%
    17:00 +34°C° 0 mm 2 mps 724 mmHg 11%
    18:00 +31°C° 0 mm 2 mps 724 mmHg 12%
    19:00 +29°C° 0 mm 2 mps 725 mmHg 13%
    20:00 +27°C° 0 mm 2 mps 725 mmHg 14%
    21:00 +27°C° 0 mm 2 mps 725 mmHg 15%
    22:00 +26°C° 0 mm 2 mps 725 mmHg 16%
    23:00 +25°C° 0 mm 2 mps 725 mmHg 16%

    Day after tomorrow, 19 January, Friday

    Time Temperature Precipitation Wind Pressure Humidity
    00:00 +24°C° 0 mm 2 mps 725 mmHg 17%
    01:00 +22°C° 0 mm 3 mps 724 mmHg 17%
    02:00 +22°C° 0 mm 3 mps 724 mmHg 18%
    03:00 +21°C° 0 mm 3 mps 724 mmHg 18%
    04:00 +20°C° 0 mm 3 mps 724 mmHg 19%
    05:00 +20°C° 0 mm 3 mps 724 mmHg 19%
    06:00 +21°C° 0 mm 3 mps 725 mmHg 18%
    07:00 +22°C° 0 mm 4 mps 725 mmHg 17%
    08:00 +25°C° 0 mm 4 mps 726 mmHg 16%
    09:00 +28°C° 0 mm 5 mps 726 mmHg 14%
    10:00 +30°C° 0 mm 5 mps 726 mmHg 11%
    11:00 +34°C° 0 mm 5 mps 726 mmHg 9%
    12:00 +35°C° 0 mm 5 mps 725 mmHg 9%
    13:00 +36°C° 0 mm 4 mps 724 mmHg 8%
    14:00 +37°C° 0 mm 4 mps 723 mmHg 8%
    15:00 +36°C° 0 mm 3 mps 723 mmHg 8%
    16:00 +35°C° 0 mm 3 mps 723 mmHg 9%
    17:00 +34°C° 0 mm 2 mps 723 mmHg 10%
    18:00 +31°C° 0 mm 2 mps 724 mmHg 11%
    19:00 +29°C° 0 mm 2 mps 724 mmHg 12%
    20:00 +28°C° 0 mm 2 mps 725 mmHg 13%
    21:00 +27°C° 0 mm 2 mps 725 mmHg 13%
    22:00 +26°C° 0 mm 2 mps 725 mmHg 13%
    23:00 +25°C° 0 mm 2 mps 725 mmHg 14%

    20 January, Saturday

    Time Temperature Precipitation Wind Pressure Humidity
    00:00 +24°C° 0 mm 2 mps 724 mmHg 14%
    01:00 +24°C° 0 mm 2 mps 724 mmHg 14%
    02:00 +23°C° 0 mm 2 mps 723 mmHg 15%
    03:00 +23°C° 0 mm 2 mps 723 mmHg 15%
    04:00 +21°C° 0 mm 2 mps 724 mmHg 16%
    05:00 +20°C° 0 mm 2 mps 724 mmHg 16%
    06:00 +22°C° 0 mm 3 mps 724 mmHg 15%
    07:00 +23°C° 0 mm 4 mps 725 mmHg 14%
    08:00 +26°C° 0 mm 5 mps 726 mmHg 12%
    09:00 +28°C° 0 mm 5 mps 726 mmHg 11%
    10:00 +32°C° 0 mm 5 mps 726 mmHg 9%
    11:00 +35°C° 0 mm 5 mps 726 mmHg 7%
    12:00 +36°C° 0 mm 5 mps 725 mmHg 7%
    13:00 +37°C° 0 mm 4 mps 724 mmHg 7%
    14:00 +37°C° 0 mm 4 mps 723 mmHg 7%
    15:00 +36°C° 0 mm 3 mps 723 mmHg 7%
    16:00 +35°C° 0 mm 3 mps 723 mmHg 8%
    17:00 +34°C° 0 mm 2 mps 723 mmHg 9%
    18:00 +31°C° 0 mm 2 mps 724 mmHg 10%
    19:00 +29°C° 0 mm 2 mps 724 mmHg 11%
    20:00 +27°C° 0 mm 2 mps 725 mmHg 12%
    21:00 +26°C° 0 mm 2 mps 725 mmHg 12%
    22:00 +26°C° 0 mm 3 mps 725 mmHg 12%
    23:00 +25°C° 0 mm 3 mps 725 mmHg 12%

    21 January, Sunday

    Time Temperature Precipitation Wind Pressure Humidity
    00:00 +24°C° 0 mm 3 mps 724 mmHg 13%
    01:00 +22°C° 0 mm 3 mps 724 mmHg 13%
    02:00 +22°C° 0 mm 3 mps 724 mmHg 13%
    03:00 +21°C° 0 mm 3 mps 724 mmHg 14%
    04:00 +21°C° 0 mm 3 mps 724 mmHg 14%
    05:00 +20°C° 0 mm 3 mps 724 mmHg 15%
    06:00 +21°C° 0 mm 4 mps 725 mmHg 14%
    07:00 +22°C° 0 mm 4 mps 726 mmHg 13%
    08:00 +23°C° 0 mm 5 mps 726 mmHg 13%
    09:00 +27°C° 0 mm 5 mps 726 mmHg 11%
    10:00 +30°C° 0 mm 5 mps 726 mmHg 10%
    11:00 +33°C° 0 mm 5 mps 726 mmHg 8%
    12:00 +34°C° 0 mm 5 mps 725 mmHg 8%
    13:00 +36°C° 0 mm 5 mps 724 mmHg 8%
    14:00 +37°C° 0 mm 4 mps 723 mmHg 8%
    15:00 +36°C° 0 mm 4 mps 723 mmHg 8%
    16:00 +35°C° 0 mm 3 mps 723 mmHg 9%
    17:00 +34°C° 0 mm 3 mps 724 mmHg 10%
    18:00 +30°C° 0 mm 3 mps 724 mmHg 11%
    19:00 +28°C° 0 mm 2 mps 725 mmHg 13%
    20:00 +26°C° 0 mm 2 mps 725 mmHg 14%
    21:00 +25°C° 0 mm 2 mps 725 mmHg 15%
    22:00 +24°C° 0 mm 2 mps 725 mmHg 15%
    23:00 +24°C° 0 mm 3 mps 725 mmHg 16%

    22 January, Monday

    Time Temperature Precipitation Wind Pressure Humidity
    00:00 +22°C° 0 mm 3 mps 725 mmHg 16%
    01:00 +21°C° 0 mm 3 mps 724 mmHg 16%
    02:00 +21°C° 0 mm 3 mps 724 mmHg 16%
    03:00 +20°C° 0 mm 3 mps 724 mmHg 17%
    04:00 +19°C° 0 mm 3 mps 724 mmHg 17%
    05:00 +19°C° 0 mm 3 mps 724 mmHg 18%
    06:00 +20°C° 0 mm 3 mps 725 mmHg 17%
    07:00 +21°C° 0 mm 4 mps 725 mmHg 16%
    08:00 +22°C° 0 mm 4 mps 726 mmHg 15%
    09:00 +26°C° 0 mm 4 mps 726 mmHg 13%
    10:00 +29°C° 0 mm 5 mps 725 mmHg 11%
    11:00 +32°C° 0 mm 5 mps 725 mmHg 9%
    12:00 +33°C° 0 mm 4 mps 725 mmHg 9%
    13:00 +34°C° 0 mm 4 mps 724 mmHg 8%
    14:00 +35°C° 0 mm 3 mps 723 mmHg 8%
    15:00 +35°C° 0 mm 3 mps 723 mmHg 8%
    16:00 +34°C° 0 mm 2 mps 723 mmHg 9%
    17:00 +32°C° 0 mm 2 mps 723 mmHg 9%
    18:00 +30°C° 0 mm 2 mps 723 mmHg 10%
    19:00 +28°C° 0 mm 2 mps 724 mmHg 11%
    20:00 +25°C° 0 mm 2 mps 724 mmHg 11%
    21:00 +25°C° 0 mm 2 mps 724 mmHg 12%
    22:00 +24°C° 0 mm 2 mps 724 mmHg 12%
    23:00 +23°C° 0 mm 2 mps 724 mmHg 12%
    Show more